Location: *
(35.8942°N, 23.3025°E)
Time: 23:07:30
(UTC+00:00)

Meteor 1-27 Rocket - Pass Details

Date: 21 September 2021
Orbit: 829 x 910 km, 81.3° (Epoch: 22 October)

Event Time Altitude Azimuth Distance (km) Brightness Sun altitude
Rises 02:48:39 0° 178° (S) 3,463 6.8 -17.9°
Reaches altitude 10° 02:51:05 10° 176° (S) 2,539 6.1 -17.4°
Maximum altitude 02:56:49 66° 95° (E) 979 4.2 -16.3°
Drops below altitude 10° 03:02:40 10° 15° (NNE) 2,595 6.6 -15.1°
Sets 03:05:10 0° 12° (NNE) 3,544 7.3 -14.7°
